Terug naar catalogus

STARLINK-31263

ActiefCommunicatieVLEO
NORAD 58832·PAYLOAD·🇺🇸 United States

Gelanceerd Jan 24, 2024 vanaf Vandenberg Space Force Base

Loading…

Volgende Passages (komende 24 uur)

TLE

VersSource: CelesTrak SupGP

Epoch: Sep 15, 2026, 02:50 UTC

1 58832C 24017G   26258.11854167  .00023325  00000+0  68894-3 0  2586
2 58832  53.1590  30.6112 0001167  92.9002 260.0600 15.34388145    18

Volg STARLINK-31263 in realtime met AllMySat

Download on the App Store